Lapse_Rate
5.1 6.5 6.5 6.5 6.5 6.5 6.5 6.5 6.5 6.5 6.5 6.5 6.5 6.5 6.5 7.0 7.1 6.9 6.3 5.6 5.7 5.5 3.1 2.2 1.3 1.1 1.9 2.3 3.4 4.3 4.0 3.6 3.3 3.9 4.4 5.1 5.2 5.2 5.5 5.1 4.4 4.0 4.3 4.0
6.5 6.5 6.5 6.5 6.5 6.5 6.5 6.5 6.5 6.5 6.5 6.5 6.5 6.5 6.5 6.8 6.9 7.0 7.0 6.1 5.5 4.8 3.9 2.7 2.5 2.4 3.0 3.4 3.6 3.3 3.4 3.4 3.8 4.0 4.1 4.1 4.1 4.6 4.1 3.9 4.0 4.3 4.0 4.2
6.5 6.5 6.4 6.5 6.5 6.5 6.5 6.5 6.5 6.5 6.5 6.5 6.5 6.5 6.5 6.6 7.0 6.4 5.9 5.2 4.7 5.3 5.3 4.7 4.4 4.0 3.2 3.1 2.7 3.3 3.4 3.8 3.7 3.7 4.9 5.2 4.8 4.9 5.6 6.0 5.8 5.5 4.6 4.9
6.5 6.3 6.5 6.5 6.5 6.5 6.5 6.5 6.5 6.5 6.5 6.5 6.5 6.5 6.5 6.5 6.5 6.7 6.6 5.9 5.9 5.7 5.3 5.3 4.9 3.9 3.0 2.6 2.5 3.6 4.0 4.6 4.6 4.4 4.7 4.0 4.8 5.3 5.5 5.4 5.9 5.3 4.6 4.6
6.5 6.5 6.5 6.5 6.5 6.5 6.5 6.5 6.5 6.5 6.5 6.5 6.5 6.5 6.5 6.5 6.5 6.5 6.8 6.2 5.8 5.1 4.9 3.8 3.1 3.1 2.9 3.5 3.4 3.8 4.5 4.7 4.0 3.8 3.4 4.2 4.3 4.8 5.3 5.2 4.8 4.5 4.5 4.3
6.5 6.0 6.5 6.5 6.5 6.5 6.5 6.5 6.5 6.5 6.5 6.5 6.5 6.5 6.5 6.5 6.5 6.5 6.8 6.8 5.6 4.9 4.8 4.4 4.0 4.7 4.7 4.3 4.1 4.1 4.6 4.7 4.1 3.8 3.7 3.8 4.4 4.6 5.2 5.5 5.5 5.6 5.7 4.9
6.5 6.5 6.5 6.1 6.5 6.5 6.5 6.5 6.5 6.5 6.5 6.5 6.5 6.5 6.5 6.5 6.5 6.6 6.8 6.7 5.3 4.5 4.2 4.7 5.2 5.4 5.1 4.9 4.2 4.3 4.4 4.7 4.1 3.8 3.9 4.2 4.9 5.2 5.6 5.5 6.1 6.1 5.5 5.1
6.5 6.5 6.5 6.5 6.5 6.5 6.5 6.5 6.5 6.5 6.5 6.5 6.5 6.5 6.5 6.5 7.0 7.1 6.3 6.2 6.1 6.0 5.5 5.5 5.1 4.9 5.1 4.8 4.8 4.6 4.7 5.3 5.1 4.9 4.6 4.9 5.3 5.8 5.7 6.1 6.0 5.2 4.5 4.4
6.5 6.5 6.5 6.5 6.6 6.5 6.5 6.5 6.5 6.5 6.5 6.5 6.5 6.5 6.5 6.5 6.6 6.9 7.0 7.0 6.6 6.3 6.1 5.9 5.8 5.7 5.4 5.3 4.8 4.5 5.1 6.1 6.3 5.7 5.1 5.3 5.5 6.0 5.9 5.6 5.0 4.5 3.8 5.1
6.5 6.5 6.5 6.5 6.5 6.6 6.5 6.5 6.5 6.5 6.5 6.5 6.5 6.5 6.5 6.5 6.5 6.5 6.8 7.0 6.5 6.4 6.7 6.6 6.7 6.1 5.8 5.9 6.0 5.8 6.2 6.4 6.3 5.7 5.6 5.9 6.1 5.9 5.4 4.6 4.4 4.6 4.9 6.6
6.5 6.5 6.5 6.5 6.5 6.5 6.5 6.5 6.5 6.5 6.5 6.5 6.5 6.5 6.5 6.5 6.5 6.5 6.8 6.9 6.4 6.5 7.0 7.2 7.1 6.8 6.2 6.4 6.9 6.4 6.4 6.3 5.9 5.2 5.3 5.5 5.2 4.8 4.7 4.8 5.3 5.4 7.0 7.8
6.5 6.5 6.5 6.5 6.5 6.6 6.5 6.5 6.5 6.5 6.5 6.5 6.5 6.5 6.5 6.5 6.8 6.9 6.8 6.5 6.4 6.4 7.1 7.1 7.1 6.7 6.5 6.6 6.8 6.5 6.0 5.5 5.1 5.4 5.7 5.3 5.3 5.4 5.3 5.9 6.6 7.3 7.9 8.1
6.5 6.5 6.5 6.5 6.5 6.5 6.5 6.5 6.5 6.5 6.5 6.5 6.5 6.5 6.6 6.8 6.8 7.0 6.9 6.8 6.4 6.2 6.6 7.0 7.2 6.6 7.1 6.8 6.8 6.5 5.4 5.1 6.2 6.0 5.7 5.5 5.8 6.1 6.7 6.8 7.1 7.5 7.6 8.1
5.4 6.5 6.5 6.5 6.5 6.5 6.5 6.5 6.5 6.5 6.5 6.5 6.5 6.5 6.5 6.5 6.5 6.9 7.1 6.3 7.0 6.6 6.4 7.3 7.1 6.8 7.2 7.3 6.2 5.5 5.6 6.0 5.4 5.3 5.8 6.3 6.6 7.2 7.2 7.2 7.5 7.6 7.6 7.9
6.5 6.5 6.5 6.5 6.5 6.5 6.5 6.5 6.5 6.5 6.5 6.5 6.5 6.5 6.5 6.5 6.6 6.9 7.1 6.9 7.1 7.4 7.1 7.0 7.4 7.2 7.6 6.9 6.3 5.9 6.5 5.8 5.6 6.5 6.8 7.1 7.4 7.7 6.7 7.9 8.6 8.6 8.7 8.4
6.6 6.5 6.5 6.5 6.5 6.5 6.5 6.5 6.5 6.5 6.5 6.5 6.5 6.5 6.7 7.0 7.1 7.0 7.2 7.1 7.3 7.5 6.9 7.1 6.5 6.5 6.3 6.4 6.5 6.0 5.7 5.7 6.2 6.8 6.9 7.4 8.0 8.7 8.3 8.1 7.9 7.9 7.8 7.5
6.5 6.5 6.5 6.5 6.5 6.5 6.5 6.5 6.5 6.5 6.5 6.5 6.5 6.5 6.7 6.6 6.8 7.0 7.3 7.4 6.8 7.1 7.2 6.7 7.3 6.5 7.0 7.0 5.9 5.6 5.6 6.2 6.7 7.0 7.7 8.0 7.9 7.8 7.5 7.5 7.6 7.4 7.3 7.4
6.5 6.5 6.5 6.5 6.5 6.5 6.5 6.5 6.5 6.5 6.5 6.5 6.5 6.5 6.8 6.9 7.3 7.5 6.8 6.7 6.9 7.0 6.9 6.7 7.2 7.3 7.2 6.5 5.9 5.3 6.1 6.8 7.0 7.4 7.6 7.7 7.3 7.1 7.2 7.2 7.2 7.3 7.5 7.4
6.6 6.5 6.5 6.5 6.5 6.5 6.5 6.5 6.5 6.5 6.5 6.5 6.5 6.7 7.0 7.3 7.4 7.0 6.7 6.8 6.2 5.0 5.8 7.2 7.4 7.1 6.6 6.3 6.0 6.1 6.6 7.0 7.2 7.5 7.5 7.3 6.9 7.0 6.8 6.7 6.8 7.1 7.1 7.3
6.5 6.5 6.5 6.5 6.5 6.5 6.5 6.5 6.3 6.7 6.5 6.8 6.9 6.8 6.9 6.7 6.5 6.5 5.4 6.1 6.8 6.5 7.7 7.8 7.4 6.6 6.1 6.6 6.3 6.7 7.5 7.4 7.9 7.8 7.0 6.9 6.5 6.6 6.7 6.6 6.7 7.0 7.3 7.5
6.5 6.5 6.5 6.5 6.5 6.5 6.5 6.3 5.8 6.5 6.5 5.9 6.4 6.9 6.6 6.5 6.4 6.0 6.3 5.5 6.9 7.1 7.2 7.3 7.1 6.2 6.2 6.5 6.4 6.7 7.0 7.1 7.7 7.1 6.8 6.7 6.5 6.4 6.6 6.5 6.9 7.3 7.7 7.0
6.5 6.5 6.5 6.5 6.5 6.5 6.2 6.2 6.5 6.4 6.0 6.5 6.7 6.9 6.5 6.8 6.8 7.3 6.7 6.7 7.1 7.0 7.2 6.9 6.4 6.3 6.0 6.3 6.3 7.0 7.3 7.7 7.2 6.8 6.6 6.7 6.6 6.5 6.5 6.7 7.3 7.6 7.8 7.3
6.5 6.5 6.5 6.5 6.5 6.2 6.1 6.6 6.4 6.1 6.6 5.8 5.9 5.8 6.0 6.4 5.6 7.2 7.0 7.0 6.8 7.0 7.3 6.7 6.6 6.1 6.0 6.6 6.8 6.9 7.4 6.6 6.6 6.1 6.6 6.7 6.5 6.5 6.8 7.0 7.5 7.9 8.2 8.1
6.5 6.2 6.5 6.5 6.5 6.7 5.8 6.2 5.2 5.6 5.2 6.0 6.8 6.2 6.1 6.9 7.2 6.8 6.6 6.4 6.7 7.0 6.8 6.7 6.1 6.4 6.6 7.1 6.7 6.6 7.0 6.8 6.0 6.4 6.8 6.9 6.8 6.9 7.3 7.1 7.5 8.0 8.4 8.5
6.3 6.5 6.5 6.5 6.7 6.7 5.5 5.5 4.9 5.3 5.9 6.1 6.4 6.6 6.9 6.9 6.6 6.3 6.4 6.5 6.6 6.4 6.3 6.4 6.4 6.5 6.7 6.9 6.8 7.2 7.1 6.3 6.1 6.6 6.8 6.6 6.5 6.5 6.8 7.1 7.5 7.9 8.0 7.9
6.1 6.5 6.5 6.5 6.7 6.4 7.0 6.9 5.9 6.3 6.5 6.9 6.8 6.7 6.5 6.0 6.1 6.3 6.1 6.0 5.7 5.9 6.4 6.6 7.1 7.0 6.7 7.1 6.7 5.9 5.4 5.0 5.5 6.1 6.3 6.0 6.2 6.2 6.5 7.3 7.5 7.0 6.8 7.2
Wind_Speed
6 8 4 2 1 3 3 2 2 3 2 5 3 6 9 10 9 8 6 6 7 6 3 3 3 2 4 5 7 8 5 1 3 3 3 2 3 4 4 6 9 12 13 15
6 4 0 5 4 2 2 3 2 3 1 1 5 4 4 9 6 5 7 8 7 6 4 3 2 2 2 4 5 7 7 6 4 2 2 2 3 3 5 8 12 12 12 13
5 0 2 2 4 4 1 2 2 3 6 2 4 2 6 4 5 5 6 4 4 6 6 4 4 6 8 9 8 7 6 6 6 6 3 3 2 3 4 9 9 14 17 16
5 3 3 3 3 1 2 2 4 3 1 1 4 3 4 5 3 2 2 3 3 4 5 7 7 9 8 6 8 10 10 10 9 7 6 6 4 6 6 8 9 11 17 16
0 2 4 5 2 1 2 1 1 1 3 2 5 0 2 3 2 2 3 3 4 6 7 8 8 9 10 9 9 8 8 8 7 6 6 5 6 5 6 8 13 13 12 16
2 2 3 2 2 1 4 2 3 2 2 2 1 2 2 3 5 4 2 5 8 8 6 7 7 7 8 6 6 5 5 7 7 7 8 8 8 9 10 13 12 12 11 10
5 3 4 3 4 3 8 3 1 2 3 1 1 1 2 7 7 5 6 7 8 8 9 8 7 6 6 7 8 7 8 9 10 9 7 8 10 13 15 15 12 15 11 11
3 1 4 5 2 2 4 2 2 1 2 4 2 0 3 5 6 6 9 7 8 8 6 5 2 1 3 5 7 8 10 11 12 11 10 10 12 9 10 12 12 11 11 7
2 2 3 4 2 2 1 5 1 5 1 2 3 1 5 5 11 10 8 8 8 8 6 3 2 4 5 8 12 11 10 11 10 9 7 9 10 12 12 15 14 10 8 3
1 2 2 3 1 6 4 4 1 3 2 3 4 4 3 2 4 2 4 6 6 6 9 9 10 10 7 8 7 7 7 8 8 8 7 8 11 12 12 12 13 10 3 1
1 1 2 1 4 1 2 2 5 3 1 2 3 5 5 5 3 1 3 0 3 6 8 9 10 11 9 6 8 8 7 8 9 7 9 10 10 11 11 9 8 4 3 3
1 2 1 2 1 1 1 3 3 2 2 1 0 7 3 6 3 2 5 3 4 6 8 9 10 9 6 8 10 10 9 9 6 8 8 8 8 9 8 8 7 7 6 6
2 2 2 2 2 2 1 2 4 4 2 7 3 6 2 6 5 6 4 6 8 11 11 10 10 8 10 11 10 10 8 6 9 9 8 7 7 6 6 7 8 9 8 8
4 2 4 4 3 2 4 4 5 4 4 4 12 18 21 18 15 8 7 6 11 12 10 8 8 9 10 9 8 9 7 8 7 5 4 4 3 4 6 7 8 7 7 8
2 3 3 4 8 5 10 12 11 12 12 7 14 15 19 15 11 7 6 11 13 13 10 9 9 7 8 9 9 7 9 7 5 4 5 6 6 4 3 4 5 6 8 9
2 2 1 3 5 4 8 14 12 13 13 13 18 20 17 11 3 5 11 12 12 9 6 7 8 7 8 9 9 9 9 5 3 3 3 4 4 7 9 10 10 9 10 9
0 3 1 3 5 8 7 4 4 3 5 4 6 8 5 4 4 13 15 11 5 4 5 9 10 9 9 10 9 11 8 4 1 0 3 5 7 8 7 8 9 9 8 8
4 3 1 2 4 1 3 2 5 7 13 8 8 6 5 8 14 11 8 5 5 7 9 10 10 11 10 10 11 7 3 3 3 4 5 7 7 7 8 9 8 8 7 8
3 4 2 2 3 6 11 6 2 4 7 3 4 8 12 16 12 2 5 4 2 10 12 10 10 10 9 10 8 5 5 5 6 6 7 6 6 7 7 8 8 8 8 7
4 3 1 2 3 5 4 1 2 3 6 3 8 15 21 13 12 6 3 7 12 12 11 12 11 8 8 8 6 7 9 7 8 6 5 5 5 6 7 7 8 6 6 6
1 1 4 6 5 8 6 4 2 2 3 4 9 14 9 5 2 4 6 13 13 14 15 13 10 8 8 8 7 7 6 7 7 5 4 4 4 5 6 6 6 6 7 6
3 3 4 2 4 7 2 2 1 3 6 9 9 5 7 6 6 7 11 12 14 15 16 14 9 9 7 7 7 7 8 8 7 6 4 4 4 4 5 6 6 7 7 8
4 5 2 7 6 2 3 8 3 2 2 4 3 1 4 1 7 11 10 14 13 14 13 11 9 11 9 8 7 9 11 6 7 6 5 4 4 5 6 7 7 7 7 7
3 4 4 1 7 12 9 3 4 2 3 3 2 2 5 8 10 13 12 11 11 13 13 12 11 12 11 8 6 8 9 7 6 6 5 4 4 6 7 5 5 6 7 7
5 4 4 6 15 10 2 2 3 4 4 3 6 7 8 9 12 12 10 12 11 11 12 12 12 11 11 9 9 7 7 4 6 6 4 4 3 5 6 5 4 5 5 6
5 7 4 6 8 4 5 4 2 5 3 1 5 8 9 9 12 10 12 11 9 12 13 13 14 11 9 8 7 7 5 5 5 5 3 2 3 3 4 5 6 3 5 8
Wind_Direction
18 70 66 36 358 138 147 162 249 257 186 330 349 318 359 1 45 57 74 105 121 104 34 8 11 106 143 154 167 186 189 16 353 1 340 330 344 330 305 301 296 284 278 276
50 73 209 105 54 102 133 207 259 254 305 343 350 7 356 31 42 49 86 91 105 111 109 89 100 101 74 101 46 38 36 26 17 344 324 305 307 302 301 316 315 313 303 298
104 69 64 108 45 40 1 103 25 298 334 77 332 81 22 33 58 52 60 95 124 128 128 133 90 60 38 42 28 27 32 42 45 26 2 336 305 308 326 341 334 331 321 313
72 8 67 68 78 48 8 73 294 258 255 228 347 150 26 357 55 40 112 135 96 41 15 17 22 35 34 48 64 78 70 50 39 28 26 24 3 345 338 327 318 318 320 319
302 42 45 51 345 30 255 337 275 198 161 140 3 136 32 10 34 317 342 356 20 26 32 48 58 71 68 61 58 56 52 44 36 35 33 25 13 349 334 328 325 321 313 312
56 321 49 307 317 37 314 61 58 74 109 126 311 344 52 18 336 338 6 30 27 11 22 70 72 71 66 53 48 43 31 30 22 21 20 16 1 346 339 339 334 327 320 318
351 357 328 21 1 10 19 43 355 13 18 213 42 345 58 13 14 6 33 31 24 20 39 61 59 52 29 22 18 7 2 3 10 7 0 355 349 348 342 336 324 315 312 313
36 344 10 347 48 313 11 44 90 297 334 317 330 232 114 69 43 60 37 56 56 50 52 60 63 171 355 11 13 2 5 353 357 358 356 353 349 340 325 316 312 305 307 297
26 287 345 35 356 353 26 48 128 104 75 287 315 219 262 317 29 36 66 52 35 23 22 11 292 285 349 1 13 8 357 342 334 339 339 336 332 324 318 314 310 311 305 210
105 323 14 310 306 48 67 125 32 33 16 306 305 267 232 68 18 65 67 42 24 11 3 346 336 336 339 352 345 332 328 321 319 327 333 327 324 325 321 320 316 315 297 218
80 87 301 333 20 358 20 52 63 107 112 218 288 269 195 180 204 120 175 247 351 337 330 323 320 324 317 311 325 325 321 324 338 347 338 332 333 336 337 334 340 357 349 327
8 133 279 140 116 323 115 129 98 123 222 201 8 269 217 189 186 225 213 232 300 301 316 315 319 327 329 328 338 340 346 349 350 329 326 343 348 358 6 12 21 20 12 35
183 23 359 29 34 17 96 167 113 104 94 227 223 267 193 229 275 303 304 323 311 309 322 330 337 345 346 351 344 345 348 346 336 339 343 360 5 15 14 7 3 10 9 15
86 127 174 215 226 191 248 216 190 180 238 249 242 273 283 285 294 309 312 286 296 301 299 328 346 354 346 320 338 349 338 337 337 331 343 351 346 340 348 342 334 338 346 350
94 224 207 260 269 277 273 254 229 224 233 242 273 276 278 288 297 302 319 304 303 308 340 4 343 317 318 340 328 322 330 335 338 337 339 338 320 349 337 315 324 316 318 322
27 242 62 289 335 320 284 274 252 238 247 250 261 268 282 291 215 269 311 301 312 349 10 317 283 308 313 331 330 320 317 331 321 304 13 14 342 329 341 332 331 332 333 342
132 139 114 269 329 310 291 242 186 203 207 238 263 301 4 307 292 312 319 334 35 32 342 316 313 310 326 326 325 320 318 317 254 238 307 313 329 338 344 342 343 340 337 339
134 99 138 292 337 267 256 235 238 251 273 265 280 334 346 332 321 317 30 71 46 347 303 288 312 320 322 325 322 308 271 236 238 272 306 324 335 338 339 343 341 337 336 336
130 135 184 244 220 305 296 289 142 174 284 42 38 346 331 323 323 335 56 51 302 251 270 304 313 312 320 320 314 255 266 267 266 287 318 330 339 331 339 341 334 330 326 330
61 71 144 161 253 268 250 357 12 152 286 142 352 339 317 312 295 309 348 304 280 283 296 304 308 294 304 314 298 280 283 283 290 303 315 322 327 333 336 330 322 322 320 322
318 330 243 249 256 267 262 298 256 13 322 274 311 308 304 333 15 282 282 279 288 294 303 307 286 282 300 304 305 295 283 270 270 281 288 312 320 325 322 312 310 316 319 314
236 205 217 169 238 277 203 274 245 323 293 269 314 19 75 320 354 298 284 292 307 313 315 309 291 297 298 297 293 278 270 284 277 256 269 294 308 312 299 298 305 317 319 317
272 201 197 186 230 262 236 282 349 315 358 15 59 291 32 170 270 297 301 308 305 310 314 313 301 297 293 285 270 271 278 285 273 241 260 280 304 300 296 297 309 316 324 325
261 184 224 205 239 259 269 304 89 124 147 204 52 229 245 284 309 307 303 304 316 320 319 319 311 302 294 298 297 283 297 292 253 253 265 288 301 314 309 302 308 315 326 332
232 175 223 248 286 279 244 204 188 174 89 156 223 266 288 297 299 295 297 312 315 318 325 325 315 305 300 315 306 307 304 277 262 267 277 286 308 317 319 320 318 326 334 336
178 224 223 262 300 301 6 28 99 137 177 293 324 310 303 297 301 313 313 314 316 325 328 328 322 311 315 316 320 341 356 341 303 294 295 295 315 335 330 331 327 344 352 354